[Iaude] MPEC V186: 2023 VJ6 [a=3.26,e=0.61,i=20.1,H=21.7]
    mpec at marsden.cfa.harvard.edu 
    mpec at marsden.cfa.harvard.edu
       
    Fri Nov 10 18:56:38 EST 2023
    
    
  
M.P.E.C. 2023-V186                            Issued 2023 November 10, 23:54 UT
     The Minor Planet Electronic Circulars contain information on unusual
         minor planets, routine data on comets and natural satellites,
         and occasional editorial announcements.  They are published
    on behalf of Division F of the International Astronomical Union by the
          Minor Planet Center, Smithsonian Astrophysical Observatory,
                          Cambridge, MA 02138, U.S.A.
			  
             Prepared using the Tamkin Foundation Computer Network
                              MPC at CFA.HARVARD.EDU
            URL https://www.minorplanetcenter.net/    ISSN 1523-6714
                                    2023 VJ6                                    
Observations:
     K23V06J* C2023 11 08.22992003 35 01.244+33 42 51.55         21.46GVEV186V00
     K23V06J  C2023 11 08.23887703 35 01.396+33 42 34.60         21.45GVEV186V00
     K23V06J  C2023 11 08.24438103 35 01.532+33 42 24.26         21.73GVEV186V00
     K23V06J  C2023 11 08.24988403 35 01.676+33 42 14.00         21.42GVEV186V00
     K23V06J KC2023 11 08.34405703 35 03.613+33 39 15.55         21.31GVEV186V06
     K23V06J KC2023 11 08.34882203 35 03.710+33 39 06.30         21.22GVEV186V06
     K23V06J KC2023 11 08.35358903 35 03.822+33 38 57.34         21.41GVEV186V06
     K23V06J KC2023 11 08.35835403 35 03.919+33 38 48.08         21.41GVEV186V06
     K23V06J KC2023 11 09.18850503 35 28.748+33 11 50.50         21.79GVEV186I52
     K23V06J KC2023 11 09.19159303 35 28.792+33 11 43.91         22.42GVEV186I52
     K23V06J KC2023 11 09.19470303 35 28.813+33 11 38.08         22.18GVEV186I52
     K23V06J KC2023 11 09.19780803 35 28.828+33 11 33.90               VEV186I52
     K23V06J KC2023 11 10.20446703 35 56.814+32 37 31.37         21.02GVEV186V06
     K23V06J KC2023 11 10.20936503 35 56.936+32 37 21.29         21.06GVEV186V06
     K23V06J KC2023 11 10.21426403 35 57.026+32 37 11.64         20.69GVEV186V06
     K23V06J KC2023 11 10.21868503 35 57.131+32 37 02.35         21.27GVEV186V06
     K23V06J 1C2023 11 10.84788 03 36 14.21 +32 14 52.9          20.9 VXEV186033
     K23V06J 1C2023 11 10.85118 03 36 14.26 +32 14 46.8          21.0 VXEV186033
     K23V06J 1C2023 11 10.85447 03 36 14.37 +32 14 40.0          20.7 VXEV186033
Observer details:
033 Karl Schwarzschild Observatory, Tautenburg.  Observers S. Melnikov, C.
    Hogner, F. Ludwig, M. Hartmann, B. Stecklum.  Measurer B. Stecklum.
    1.34-m f/3 Schmidt + CCD.
I52 Steward Observatory, Mt. Lemmon Station.  Observer H. Groeller.  Measurers
    E. C. Beshore, D. Fay, J. B. Fazekas, D. C. Fuls, A. R. Gibbs, A. D.
    Grauer, H. Groeller, J. K. Hogan, R. A. Kowalski, S. M. Larson, G. J.
    Leonard, D. Rankin, R. L. Seaman, F. C. Shelly, K. W. Wierzchos.  1.0-m
    prime focus + CCD.
V00 Kitt Peak-Bok.  Observer K. W. Wierzchos.  Measurers M. J. Brucker, C. E.
    Woodward, D. Fay, J. B. Fazekas, D. C. Fuls, A. R. Gibbs, H. Groeller, J.
    K. Hogan, R. A. Kowalski, S. M. Larson, C. Lejoly, G. J. Leonard, R. A.
    Mastaler, R. S. McMillan, D. Rankin, R. L. Seaman, A. Serrano, F. C.
    Shelly, K. W. Wierzchos.  2.25-m reflector + 4x4K mosaic CCD.
V06 Catalina Sky Survey-Kuiper.  Observer H. Groeller.  Measurers E. C.
    Beshore, D. Fay, J. B. Fazekas, D. C. Fuls, A. R. Gibbs, A. D. Grauer, H.
    Groeller, J. K. Hogan, R. A. Kowalski, S. M. Larson, G. J. Leonard, D.
    Rankin, R. L. Seaman, F. C. Shelly, K. W. Wierzchos.  1.55-m reflector +
    1K CCD.
Orbital elements:
2023 VJ6                                                 Earth MOID = 0.3212 AU
Epoch 2023 Sept. 13.0 TT = JDT 2460200.5                Veres                   
M 340.55669              (2000.0)            P               Q                  
n   0.16771377     Peri.  214.64779     -0.08983695     -0.94821099             
a   3.2565436      Node   242.27806     +0.97379800     -0.01945785             
e   0.6120841      Incl.   20.13167     +0.20891813     -0.31704464             
P   5.88           H   21.74          G   0.15           U   9                  
Residuals in seconds of arc
231108 V00  0.3+  0.2+    231108 V06  0.1-  0.1-    231110 V06  0.1-  0.2+
231108 V00  0.3-  0.0     231109 I52  0.3+  0.2+    231110 V06  0.1+  0.1-
231108 V00  0.1-  0.1-    231109 I52  0.0   0.4-    231110 033  0.3+  0.4-
231108 V00  0.2+  0.0     231109 I52  0.6-  0.1-    231110 033  0.0   0.4+
231108 V06  0.2-  0.0     231109 I52  1.3-  1.7+    231110 033  0.5+  0.5+
231108 V06  0.2-  0.2-    231110 V06  0.1-  0.0
231108 V06  0.0   0.0     231110 V06  0.1+  0.1-
Ephemeris:
2023 VJ6                 a,e,i = 3.26, 0.61, 20                  q = 1.2633
Date    TT    R. A. (2000) Decl.     Delta      r    Elong.  Phase     V
2023 10 11    03 14 09.1 +40 55 05   0.7498  1.6183   135.0    25.9    23.3
...
2023 10 26    03 27 11.7 +38 46 00   0.5882  1.5217   147.0    20.8    22.5
...
2023 11 03    03 32 17.5 +36 09 08   0.5151  1.4740   154.5    16.8    22.0
...
2023 11 09    03 35 22.4 +33 18 07   0.4672  1.4404   160.9    13.0    21.6
2023 11 10    03 35 50.3 +32 44 37   0.4599  1.4350   162.0    12.3    21.6
2023 11 11    03 36 17.6 +32 09 38   0.4528  1.4296   163.2    11.6    21.5
...
2023 11 17    03 38 52.2 +28 07 46   0.4142  1.3989   170.2     6.9    21.1
...
2023 11 25    03 42 23.4 +21 22 14   0.3753  1.3618   175.8     3.1    20.6
...
2023 12 10    03 51 45.6 +05 59 29   0.3444  1.3064   155.6    18.1    20.9
M. P. C. Staff               (C) Copyright 2023 MPC           M.P.E.C. 2023-V186
    
    
More information about the Iaude
mailing list